SCP
0 0 0 0 0 0 0 0 0 0 0 0 1 0 0 0 0 0 0 0 0 0 0 0 0 0 0 0 0 0 0 0 0 0 0 0 0 0 0 0 0 0 0 0
0 0 0 0 0 0 0 0 0 0 0 0 0 0 0 0 0 0 0 0 0 0 0 0 0 0 0 0 0 0 0 0 0 0 0 0 0 0 0 0 0 0 0 0
0 0 0 0 0 0 0 0 0 0 0 0 0 0 0 0 0 0 0 0 0 0 0 0 0 0 0 0 0 0 0 0 0 0 0 0 0 0 0 0 0 0 0 0
0 0 0 0 0 0 0 0 0 0 0 0 0 0 0 0 0 0 0 0 0 0 0 0 0 0 0 0 0 0 0 0 0 0 0 0 0 0 0 0 0 0 0 0
0 0 0 0 0 0 0 0 0 0 0 0 0 0 0 0 0 0 0 0 0 0 0 0 0 0 0 0 0 0 0 0 0 0 0 0 0 0 0 0 0 0 0 0
0 0 0 0 0 0 0 0 0 0 0 0 0 0 0 0 0 0 0 0 0 0 0 0 0 0 0 0 0 0 0 0 0 0 0 0 0 0 0 0 0 0 0 0
0 0 0 0 0 0 0 0 0 0 0 0 0 0 0 0 0 0 0 0 0 0 0 0 0 0 0 0 0 0 0 0 0 0 0 0 0 0 0 0 0 0 0 0
0 0 0 0 0 0 0 0 0 0 0 0 0 0 0 0 0 0 0 0 0 0 0 0 0 0 0 0 0 0 0 0 0 0 0 0 0 0 0 0 0 0 0 0
0 0 0 0 0 0 0 0 0 0 0 0 0 0 0 0 0 0 0 0 0 0 0 0 0 0 0 0 0 0 0 0 0 0 0 0 0 0 0 0 0 0 0 0
0 0 0 0 0 0 0 0 0 0 0 0 0 0 0 0 0 0 0 0 0 0 0 0 0 0 0 0 0 0 0 0 0 0 0 0 0 0 0 0 0 0 0 0
0 0 0 0 0 0 0 0 0 0 0 0 0 0 0 0 0 0 0 0 0 0 0 0 0 0 0 0 0 0 0 0 0 0 0 0 0 0 0 0 0 0 0 0
0 0 0 0 0 0 0 0 0 0 0 0 0 0 0 0 0 0 0 0 0 0 0 0 0 0 0 0 0 0 0 0 0 0 0 0 0 0 0 0 0 0 0 0
0 0 0 0 0 0 0 0 0 0 0 0 0 0 0 0 0 0 0 0 0 0 0 0 0 0 0 0 -0 0 0 0 0 0 0 0 0 0 0 0 0 0 0 0
0 0 0 0 0 0 0 0 0 0 0 0 0 0 0 0 0 0 0 0 0 0 0 0 0 0 0 0 -0 0 0 0 0 0 0 0 0 0 0 0 0 0 0 0
0 0 0 0 0 0 0 0 0 0 0 0 0 0 0 0 0 0 0 0 0 0 0 0 0 0 0 0 0 0 0 0 0 0 0 0 0 0 0 0 0 0 0 0
0 0 0 0 0 0 0 0 0 0 0 0 0 0 0 0 0 0 0 0 0 0 0 0 0 0 0 0 0 0 0 0 0 0 0 0 0 0 0 0 0 0 0 0
0 0 0 0 0 0 0 0 0 0 0 0 0 0 0 0 0 0 0 0 0 0 0 0 0 0 0 0 0 0 0 0 0 0 0 0 0 0 0 0 0 0 0 0
0 0 0 0 0 0 0 0 0 0 0 0 0 0 0 0 0 0 0 0 0 0 0 0 0 0 0 0 0 0 0 0 0 0 0 0 0 0 0 0 0 0 0 0
0 0 0 0 0 0 0 0 0 0 0 0 0 0 0 0 0 0 0 0 0 0 0 0 0 0 0 0 0 0 0 0 0 0 0 0 0 0 0 0 0 0 0 0
0 0 0 0 0 0 0 0 0 0 0 0 0 0 0 0 0 0 0 0 0 0 0 0 0 0 0 0 0 0 0 0 0 0 0 0 0 0 0 0 0 0 0 0
0 0 0 0 0 0 0 0 0 0 0 0 0 0 0 0 0 0 0 0 0 0 0 0 0 0 0 0 0 0 0 0 0 0 0 0 0 0 0 0 0 0 0 0
0 0 0 0 0 0 0 0 0 0 0 0 0 0 0 0 0 0 0 0 0 0 0 0 0 0 0 0 0 0 0 0 0 0 0 0 0 0 0 0 0 0 0 0
0 0 0 0 0 0 0 0 0 0 0 0 0 0 0 0 0 0 0 0 0 0 0 0 0 0 0 0 0 0 0 0 0 0 0 0 0 0 0 0 0 0 0 0
0 0 0 0 0 0 0 0 0 0 0 0 0 0 0 0 0 0 0 0 0 0 0 0 0 0 0 0 0 0 0 0 0 0 0 0 0 0 0 0 0 0 0 0
0 0 0 0 0 0 0 0 0 0 0 0 0 0 0 0 0 0 0 0 0 0 0 0 0 0 0 0 0 0 0 0 0 0 0 0 0 0 0 0 0 0 0 0
0 0 0 0 0 0 0 0 0 0 -0 -0 -0 0 0 0 0 0 0 0 0 -0 0 0 0 0 0 0 0 0 0 0 0 0 0 0 0 0 0 0 0 0 0 0
0 0 0 0 0 0 0 0 0 0 -0 -0 -0 0 0 0 0 0 0 0 0 -0 0 0 0 0 0 0 0 0 0 0 0 -0 0 0 0 0 0 0 0 0 0 0
Wind_Speed
5 5 4 4 3 2 3 6 5 1 6 10 13 14 15 15 15 15 14 13 12 11 11 10 10 10 10 11 10 10 11 11 11 10 9 9 9 8 8 7 7 7 6 6
5 5 5 7 7 5 5 5 3 5 7 7 11 13 14 14 15 15 14 13 12 12 11 11 10 10 10 10 9 9 10 10 9 9 9 8 8 7 7 6 6 6 6 6
3 3 4 5 8 7 6 6 5 4 5 7 10 12 13 14 14 14 14 13 12 11 10 10 9 9 9 9 8 9 9 9 8 8 8 7 6 6 6 6 5 5 6 6
2 4 1 6 4 4 5 7 7 7 8 8 9 10 10 12 14 14 14 13 11 9 9 9 9 8 8 8 8 8 8 8 7 7 7 6 6 6 5 5 5 5 5 6
2 2 5 6 3 3 2 5 6 9 9 11 13 13 9 9 12 13 14 13 11 10 9 8 8 8 8 8 8 7 7 7 6 6 5 5 5 5 4 4 4 4 5 6
2 2 2 6 4 3 3 4 6 7 9 9 9 6 6 10 13 14 13 12 11 10 10 8 8 7 7 7 7 7 6 6 5 4 4 4 4 3 3 3 4 4 5 5
1 1 6 6 3 4 3 4 6 6 7 6 4 8 14 15 14 14 13 12 11 10 9 8 7 6 7 7 6 6 5 4 3 3 2 2 2 2 2 3 3 4 4 4
1 0 5 5 2 4 6 6 7 7 8 11 15 18 16 16 15 14 13 12 10 9 8 7 6 6 7 6 5 4 3 3 2 2 2 1 1 1 2 3 2 2 3 3
5 7 7 5 6 6 6 8 9 9 12 15 17 17 16 15 14 13 12 11 9 9 9 7 6 5 6 5 4 3 2 2 2 1 1 1 1 1 1 2 3 3 4 4
6 7 7 7 7 7 8 10 11 12 14 16 17 16 15 14 13 12 11 10 9 9 9 7 6 5 4 3 2 1 1 1 1 1 0 1 1 2 3 4 4 4 4 5
6 9 9 7 8 10 11 12 14 14 14 15 17 16 15 13 13 11 10 9 8 8 7 7 6 5 3 2 1 1 1 1 1 0 1 1 2 4 5 6 7 6 6 6
4 9 7 10 10 11 13 14 14 15 15 14 15 15 14 13 11 11 10 9 8 8 7 6 5 4 3 1 1 2 2 1 1 0 1 0 2 4 5 4 4 2 3 6
7 9 11 13 12 12 13 14 14 15 15 15 14 14 14 12 11 10 10 9 8 7 6 5 3 2 1 0 2 2 2 2 2 1 0 0 1 1 4 5 4 4 2 1
13 14 15 14 13 13 14 15 15 15 15 14 14 13 13 12 11 10 9 8 7 6 4 3 2 1 1 1 2 2 2 1 2 0 0 1 1 1 2 2 2 4 6 4
11 9 14 15 15 15 15 15 16 15 15 14 13 13 12 12 11 10 8 7 5 4 3 2 1 1 1 1 2 2 2 1 1 1 0 1 1 1 2 2 2 2 2 4
12 14 17 17 17 16 16 16 16 16 15 14 13 13 12 11 10 9 7 5 4 3 2 1 1 1 1 1 2 2 1 2 2 1 1 1 1 1 2 2 2 2 3 4
17 17 17 17 17 16 16 15 15 15 15 14 14 13 12 11 10 8 6 5 3 2 1 1 1 1 1 1 3 2 0 4 5 4 1 1 1 2 2 2 2 2 4 5
14 16 16 17 16 16 16 15 15 15 14 14 14 12 11 10 9 7 5 4 3 3 2 1 2 3 2 2 3 3 2 0 1 1 2 2 1 1 2 2 2 3 2 3
14 16 16 16 16 16 15 15 15 15 14 14 13 12 10 9 7 6 5 3 3 3 3 2 1 4 1 2 3 3 1 0 2 2 2 3 1 1 2 2 2 3 3 3
15 16 17 17 16 16 15 15 15 14 13 13 13 11 10 8 7 5 4 2 2 3 3 2 1 0 1 2 4 2 1 1 2 3 2 2 2 2 2 2 2 2 3 3
17 17 18 17 16 16 15 15 14 14 13 13 12 11 9 8 6 5 3 3 5 3 2 2 2 0 1 1 4 1 2 2 2 2 2 2 2 2 2 2 2 2 3 3
17 17 17 16 16 15 15 14 14 14 13 12 12 10 9 8 7 5 2 2 5 2 2 2 3 5 3 5 1 2 3 2 2 3 3 2 2 2 2 2 2 2 2 3
15 16 16 16 16 15 15 14 14 13 13 12 11 10 9 7 5 4 5 5 4 3 1 4 5 2 5 5 1 3 3 3 2 3 3 3 2 2 2 2 2 2 2 3
16 16 16 16 16 16 15 15 14 12 12 11 10 10 8 6 5 3 4 6 4 3 1 6 3 2 7 3 1 2 3 3 2 2 3 3 3 2 2 2 1 2 2 3
16 16 16 16 15 13 14 14 14 13 13 10 11 10 8 5 5 4 4 6 7 5 4 6 6 5 6 0 2 2 2 3 3 2 2 2 2 2 2 1 1 2 2 2
15 13 13 13 12 11 12 12 11 11 11 10 10 9 8 6 5 5 5 6 8 5 4 4 6 7 3 1 2 2 3 5 4 3 2 2 2 2 2 2 2 1 2 2
15 13 11 12 12 12 11 11 11 11 11 10 10 9 9 7 7 6 6 6 6 6 4 3 3 3 2 2 3 3 3 3 2 2 2 2 2 1 2 2 1 1 1 2
Wind_Direction
71 76 79 63 37 11 317 316 302 69 136 151 157 149 143 138 134 130 126 121 117 112 108 104 99 95 93 92 92 93 94 92 91 92 92 91 88 84 81 76 72 65 58 53
119 124 108 74 44 39 27 8 28 85 86 103 134 136 139 141 138 133 130 127 123 117 113 108 104 102 100 99 99 99 96 95 95 96 94 91 88 85 79 70 61 53 45 36
161 165 198 76 32 32 45 26 17 43 84 111 129 141 145 143 139 134 131 127 123 119 115 112 110 110 108 108 108 104 100 99 100 97 93 91 88 81 70 61 52 42 33 25
194 213 191 80 59 48 68 54 49 74 91 94 101 110 121 133 134 132 130 126 122 119 118 117 117 117 116 115 112 107 104 102 99 97 93 86 77 68 57 47 39 33 24 17
254 183 119 124 75 8 10 73 67 96 101 104 108 97 87 109 123 127 128 125 124 125 124 122 124 124 120 116 113 109 104 101 94 89 86 79 69 58 45 33 26 20 28 16
261 264 103 85 44 347 265 127 101 117 130 138 146 130 123 123 121 122 122 123 126 128 128 129 129 127 123 119 114 107 102 97 90 79 66 60 53 38 37 18 11 6 26 16
349 84 86 53 348 270 278 85 120 133 141 148 128 111 126 128 124 124 125 128 131 132 132 129 130 129 123 116 109 105 104 97 87 70 57 45 38 27 4 357 9 3 8 13
304 127 86 34 351 23 59 96 120 123 117 110 108 115 124 127 127 128 129 132 134 134 131 132 135 133 123 112 111 114 109 101 83 46 13 41 26 357 345 332 324 1 8 12
29 55 77 63 65 76 102 117 119 119 118 121 123 126 127 127 128 130 133 135 139 137 133 134 135 130 120 117 120 120 114 73 42 20 6 358 331 333 317 322 341 6 9 16
114 110 105 98 98 101 108 115 117 120 123 125 124 127 128 127 128 131 133 135 140 141 138 135 134 128 124 121 119 115 86 31 342 332 19 89 330 351 358 6 7 15 15 10
122 129 129 115 111 113 113 116 118 120 125 128 129 131 131 131 134 134 135 140 142 139 135 133 135 134 137 137 200 262 300 311 308 340 80 96 69 35 12 46 31 1 5 2
140 157 152 133 130 129 127 126 127 127 126 129 131 131 131 132 134 137 139 141 142 141 138 136 142 141 143 172 267 286 280 277 299 7 74 341 123 126 80 51 93 58 4 341
106 127 118 127 132 133 130 128 130 129 129 129 129 131 132 134 137 139 140 142 142 141 140 144 147 140 123 328 309 304 306 320 307 332 47 82 53 91 133 151 181 189 200 301
121 120 125 134 133 132 130 127 126 126 128 129 132 135 135 136 138 141 140 139 140 144 147 152 160 131 90 318 305 297 280 156 274 285 41 63 67 56 46 59 123 153 172 193
145 137 134 132 132 132 133 133 132 132 132 134 136 136 138 138 139 137 136 138 145 153 147 150 143 85 25 321 313 308 300 6 5 33 82 79 63 57 59 47 37 42 86 142
135 129 135 138 139 141 143 143 140 138 139 139 140 140 139 138 138 139 143 151 159 139 116 107 61 43 358 316 292 251 179 69 310 272 162 122 90 54 50 43 44 45 43 28
144 147 148 147 148 149 149 147 143 143 144 144 142 141 142 143 144 146 148 143 133 113 117 119 58 13 301 290 294 292 225 143 192 234 177 95 72 56 43 35 47 52 58 52
156 155 154 153 152 150 148 147 146 147 146 144 144 147 150 152 151 147 144 143 156 157 142 119 19 316 301 328 319 310 299 268 177 108 108 91 61 64 54 54 56 53 67 117
147 149 149 151 150 150 149 149 149 148 147 148 151 154 154 152 148 148 153 169 178 154 114 84 27 275 314 41 305 246 253 145 134 127 117 127 197 85 68 64 59 55 43 36
145 147 148 149 151 151 150 150 149 148 150 153 154 155 156 154 155 158 168 174 81 62 86 46 267 302 29 82 286 285 98 131 133 127 132 137 109 96 83 71 63 52 45 36
148 149 150 151 152 152 151 152 152 153 155 158 160 160 157 156 162 168 196 145 116 103 124 172 238 31 56 18 253 281 96 111 118 115 116 109 103 98 88 83 72 55 41 35
151 152 153 152 153 153 154 156 157 158 159 164 165 162 160 163 166 164 152 88 116 144 238 145 90 62 16 294 255 84 93 100 102 105 101 92 98 106 99 88 78 60 41 31
153 154 154 156 156 154 156 160 162 162 165 169 168 168 172 171 171 171 149 142 144 158 219 76 77 90 291 267 78 95 94 92 92 102 104 104 102 102 102 91 74 60 46 35
153 155 156 156 156 158 162 164 163 165 170 173 170 172 175 172 172 170 116 123 134 176 151 103 136 222 264 254 111 114 116 115 112 106 108 118 116 108 101 91 79 65 57 46
154 156 157 160 162 164 165 165 165 169 175 176 172 174 186 187 170 151 145 151 156 201 178 148 179 230 251 182 120 119 104 70 54 66 110 109 119 119 111 96 71 57 53 51
156 160 161 168 167 166 167 170 173 175 178 177 176 178 181 178 172 165 172 171 172 204 226 165 168 210 224 142 132 125 123 141 169 181 121 131 116 104 97 88 95 62 56 54
158 158 162 170 172 175 174 176 177 178 180 180 179 177 179 180 181 179 182 180 178 192 201 190 184 185 173 157 139 148 155 151 149 150 156 158 145 143 129 140 114 88 71 73